Weather History for Baltimore Martin, MD

Change the Weather History Date:

Sunday, June 16, 2013

  Actual Average Record
Temperature  
Mean Temperature 74 °F -  
Max Temperature 86 °F 77 °F 87 °F (2008)
Min Temperature 62 °F 63 °F 59 °F (2006)
Cooling Degree Days 9    
Growing Degree Days 24 (Base 50)    
Moisture  
Dew Point 63 °F    
Average Humidity 78    
Maximum Humidity 94    
Minimum Humidity 48    
Precipitation  
Precipitation 0.00 in - - ()
Sea Level Pressure  
Sea Level Pressure 29.97 in    
Wind  
Wind Speed 2 mph (SW)    
Max Wind Speed 13 mph    
Max Gust Speed 21 mph    
Visibility 10 miles    
Events      
Averages and records for this station are not official NWS values.
T = Trace of Precipitation, MM = Missing Value Source: NWS Daily Summary

Daily Weather History Graph

Daily Weather History Graph

Search for Another Location

Airport:

Trip Planner

Search our weather history database for the weather conditions in past years. The results will help you decide how hot, cold, wet, or windy it might be!

Date:

Astronomy

Jun. 16, 2013 Rise Set
Actual Time 5:38 AM EDT 8:34 PM EDT
Civil Twilight 5:06 AM EDT 9:06 PM EDT
Nautical Twilight 4:25 AM EDT 9:47 PM EDT
Astronomical Twilight 3:38 AM EDT 10:34 PM EDT
Moon 1:09 PM EDT (6/16) 12:40 AM EDT (6/16)
Length of Visible Light 16h 00m
Length of Day
14h 56m
Waxing Crescent, 49% of the Moon is Illuminated
Jun 16
Waxing Crescent
Jun 16
First Quarter
Jun 23
Full
Jun 30
Last Quarter
Jul 8
New

Hourly Weather History & Observations

Time (EDT) Temp. Heat Index Dew Point Humidity Pressure Visibility Wind Dir Wind Speed Gust Speed Precip Events Conditions
12:00 AM 64.4 °F - 60.8 °F 88% 30.03 in 10.0 mi Calm Calm - N/A   Clear
12:18 AM 64.4 °F - 60.8 °F 88% 30.03 in 10.0 mi Calm Calm - N/A   Clear
12:39 AM 62.6 °F - 59.0 °F 88% 30.04 in 10.0 mi Calm Calm - N/A   Clear
1:00 AM 64.4 °F - 59.0 °F 83% 30.04 in 10.0 mi Calm Calm - N/A   Clear
1:18 AM 62.6 °F - 59.0 °F 88% 30.04 in 10.0 mi Calm Calm - N/A   Clear
1:39 AM 62.6 °F - 59.0 °F 88% 30.04 in 10.0 mi Calm Calm - N/A   Clear
2:00 AM 62.6 °F - 60.8 °F 94% 30.03 in 10.0 mi Calm Calm - N/A   Clear
2:18 AM 62.6 °F - 60.8 °F 94% 30.04 in 10.0 mi Calm Calm - N/A   Clear
2:39 AM 62.6 °F - 60.8 °F 94% 30.03 in 10.0 mi NW 3.5 mph - N/A   Clear
3:00 AM 64.4 °F - 59.0 °F 83% 30.03 in 10.0 mi WNW 3.5 mph - N/A   Scattered Clouds
3:18 AM 62.6 °F - 59.0 °F 88% 30.02 in 10.0 mi Calm Calm - N/A   Scattered Clouds
3:39 AM 64.4 °F - 59.0 °F 83% 30.03 in 10.0 mi Calm Calm - N/A   Scattered Clouds
4:00 AM 64.4 °F - 59.0 °F 83% 30.02 in 10.0 mi Calm Calm - N/A   Scattered Clouds
4:18 AM 64.4 °F - 60.8 °F 88% 30.02 in 10.0 mi Calm Calm - N/A   Clear
4:39 AM 64.4 °F - 59.0 °F 83% 30.01 in 10.0 mi Calm Calm - N/A   Clear
5:00 AM 64.4 °F - 59.0 °F 83% 30.01 in 10.0 mi Calm Calm - N/A   Clear
5:18 AM 64.4 °F - 59.0 °F 83% 30.01 in 10.0 mi Calm Calm - N/A   Clear
5:30 AM 64.4 °F - 59.0 °F 83% 30.01 in 10.0 mi Calm Calm - N/A   Clear
5:55 AM 64.4 °F - 60.8 °F 88% 30.01 in 10.0 mi Calm Calm - N/A   Mostly Cloudy
7:45 AM 68.0 °F - 60.8 °F 78% 30.00 in 10.0 mi Calm Calm - N/A   Mostly Cloudy
8:45 AM 69.8 °F - 62.6 °F 78% 29.99 in 10.0 mi Calm Calm - N/A   Mostly Cloudy
9:45 AM 73.4 °F - 66.2 °F 78% 29.97 in 10.0 mi South 4.6 mph - N/A   Mostly Cloudy
10:45 AM 78.8 °F - 66.2 °F 65% 29.96 in 10.0 mi South 6.9 mph - N/A   Scattered Clouds
11:54 AM 80.6 °F 82.7 °F 66.2 °F 61% 29.94 in 10.0 mi South 8.1 mph - N/A   Mostly Cloudy
1:50 PM 82.4 °F 83.4 °F 62.6 °F 51% 29.90 in 10.0 mi SSW 8.1 mph - N/A   Mostly Cloudy
2:50 PM 86.0 °F 87.3 °F 64.4 °F 48% 29.89 in 10.0 mi SW 11.5 mph 19.6 mph N/A   Mostly Cloudy
3:45 PM 84.2 °F 85.6 °F 64.4 °F 51% 29.88 in 10.0 mi SW 6.9 mph - N/A   Mostly Cloudy
4:45 PM 84.2 °F 85.6 °F 64.4 °F 51% 29.88 in 10.0 mi WSW 10.4 mph 20.7 mph N/A   Mostly Cloudy
5:50 PM 84.2 °F 85.6 °F 64.4 °F 51% 29.88 in 10.0 mi WSW 12.7 mph 20.7 mph N/A   Overcast
6:45 PM 75.2 °F - 69.8 °F 83% 29.90 in 7.0 mi WSW 5.8 mph - N/A   Mostly Cloudy
7:50 PM 77.0 °F - 69.8 °F 78% 29.90 in 10.0 mi WSW 3.5 mph - N/A   Scattered Clouds
8:48 PM 73.4 °F - 71.6 °F 94% 29.90 in 10.0 mi Calm Calm - N/A   Scattered Clouds
9:45 PM 73.4 °F - 71.6 °F 94% 29.91 in 10.0 mi Calm Calm - N/A   Clear
10:21 PM 77.0 °F - 68.0 °F 74% 29.92 in 10.0 mi Calm Calm - N/A   Clear
10:42 PM 77.0 °F - 64.4 °F 65% 29.92 in 10.0 mi WSW 4.6 mph - N/A   Clear
11:00 PM 77.0 °F - 64.4 °F 65% 29.92 in 10.0 mi WSW 3.5 mph - N/A   Clear
11:21 PM 77.0 °F - 64.4 °F 65% 29.92 in 10.0 mi WSW 5.8 mph - N/A   Clear
11:42 PM 77.0 °F - 64.4 °F 65% 29.92 in 10.0 mi Calm Calm - N/A   Clear